Year,Month,Day,Hour,Minute,Value (Times are PST for windspeed in km/hr)
2016,10,15,00,00,2.10
2016,10,15,00,01,4.60
2016,10,15,00,02,4.80
2016,10,15,00,03,2.20
2016,10,15,00,04,1.10
2016,10,15,00,05,3.80
2016,10,15,00,06,3.80
2016,10,15,00,07,3.40
2016,10,15,00,08,3.00
2016,10,15,00,09,1.90
2016,10,15,00,10,3.20
2016,10,15,00,11,2.40
2016,10,15,00,12,3.40
2016,10,15,00,13,2.00
2016,10,15,00,14,3.70
2016,10,15,00,15,2.80
2016,10,15,00,16,4.00
2016,10,15,00,17,4.20
2016,10,15,00,18,2.10
2016,10,15,00,19,0.10
2016,10,15,00,20,1.00
2016,10,15,00,21,4.20
2016,10,15,00,22,5.30
2016,10,15,00,23,5.20
2016,10,15,00,24,2.80
2016,10,15,00,25,2.60
2016,10,15,00,26,3.00
2016,10,15,00,27,5.90
2016,10,15,00,28,4.50
2016,10,15,00,29,1.80
2016,10,15,00,30,4.50
2016,10,15,00,31,3.90
2016,10,15,00,32,3.40
2016,10,15,00,33,1.80
2016,10,15,00,34,0.90
2016,10,15,00,35,1.20
2016,10,15,00,36,2.00
2016,10,15,00,37,3.30
2016,10,15,00,38,2.60
2016,10,15,00,39,4.20
2016,10,15,00,40,7.20
2016,10,15,00,41,7.20
2016,10,15,00,42,4.10
2016,10,15,00,43,1.60
2016,10,15,00,44,3.10
2016,10,15,00,45,3.30
2016,10,15,00,46,5.70
2016,10,15,00,47,4.80
2016,10,15,00,48,3.10
2016,10,15,00,49,1.20
2016,10,15,00,50,2.60
2016,10,15,00,51,4.50
2016,10,15,00,52,4.50
2016,10,15,00,53,1.10
2016,10,15,00,54,1.20
2016,10,15,00,55,2.40
2016,10,15,00,56,2.20
2016,10,15,00,57,3.40
2016,10,15,00,58,2.70
2016,10,15,00,59,1.60
2016,10,15,01,00,2.90
2016,10,15,01,01,3.20
2016,10,15,01,02,4.40
2016,10,15,01,03,5.60
2016,10,15,01,04,4.00
2016,10,15,01,05,2.00
2016,10,15,01,06,0.50
2016,10,15,01,07,0.40
2016,10,15,01,08,0.90
2016,10,15,01,09,0.30
2016,10,15,01,10,0.40
2016,10,15,01,11,0.10
2016,10,15,01,12,0.00
2016,10,15,01,13,0.30
2016,10,15,01,14,0.90
2016,10,15,01,15,1.30
2016,10,15,01,16,1.70
2016,10,15,01,17,0.80
2016,10,15,01,18,0.70
2016,10,15,01,19,0.10
2016,10,15,01,20,0.20
2016,10,15,01,21,0.60
2016,10,15,01,22,1.40
2016,10,15,01,23,1.30
2016,10,15,01,24,1.40
2016,10,15,01,25,2.80
2016,10,15,01,26,2.90
2016,10,15,01,27,1.30
2016,10,15,01,28,1.00
2016,10,15,01,29,0.90
2016,10,15,01,30,1.80
2016,10,15,01,31,2.50
2016,10,15,01,32,1.80
2016,10,15,01,33,0.80
2016,10,15,01,34,0.40
2016,10,15,01,35,0.10
2016,10,15,01,36,0.60
2016,10,15,01,37,2.80
2016,10,15,01,38,2.40
2016,10,15,01,39,3.50
2016,10,15,01,40,2.80
2016,10,15,01,41,1.40
2016,10,15,01,42,0.30
2016,10,15,01,43,0.70
2016,10,15,01,44,2.70
2016,10,15,01,45,3.10
2016,10,15,01,46,3.40
2016,10,15,01,47,2.20
2016,10,15,01,48,0.20
2016,10,15,01,49,0.90
2016,10,15,01,50,1.30
2016,10,15,01,51,0.20
2016,10,15,01,52,0.20
2016,10,15,01,53,0.00
2016,10,15,01,54,0.00
2016,10,15,01,55,0.50
2016,10,15,01,56,0.30
2016,10,15,01,57,0.00
2016,10,15,01,58,0.00
2016,10,15,01,59,0.00
2016,10,15,02,00,0.00
2016,10,15,02,01,0.40
2016,10,15,02,02,0.60
2016,10,15,02,03,0.50
2016,10,15,02,04,0.90
2016,10,15,02,05,0.60
2016,10,15,02,06,1.10
2016,10,15,02,07,0.90
2016,10,15,02,08,1.60
2016,10,15,02,09,2.00
2016,10,15,02,10,3.40
2016,10,15,02,11,3.10
2016,10,15,02,12,1.80
2016,10,15,02,13,1.00
2016,10,15,02,14,0.60
2016,10,15,02,15,0.90
2016,10,15,02,16,1.10
2016,10,15,02,17,1.00
2016,10,15,02,18,0.40
2016,10,15,02,19,0.00
2016,10,15,02,20,0.10
2016,10,15,02,21,0.80
2016,10,15,02,22,0.40
2016,10,15,02,23,0.90
2016,10,15,02,24,2.00
2016,10,15,02,25,1.90
2016,10,15,02,26,1.90
2016,10,15,02,27,1.70
2016,10,15,02,28,0.50
2016,10,15,02,29,0.00
2016,10,15,02,30,0.00
2016,10,15,02,31,0.00
2016,10,15,02,32,0.00
2016,10,15,02,33,0.00
2016,10,15,02,34,0.00
2016,10,15,02,35,0.00
2016,10,15,02,36,0.00
2016,10,15,02,37,0.00
2016,10,15,02,38,0.20
2016,10,15,02,39,1.20
2016,10,15,02,40,0.40
2016,10,15,02,41,1.00
2016,10,15,02,42,0.30
2016,10,15,02,43,0.00
2016,10,15,02,44,0.00
2016,10,15,02,45,0.00
2016,10,15,02,46,0.90
2016,10,15,02,47,1.30
2016,10,15,02,48,1.10
2016,10,15,02,49,1.20
2016,10,15,02,50,1.50
2016,10,15,02,51,1.70
2016,10,15,02,52,2.00
2016,10,15,02,53,1.60
2016,10,15,02,54,1.30
2016,10,15,02,55,0.20
2016,10,15,02,56,0.00
2016,10,15,02,57,0.10
2016,10,15,02,58,0.90
2016,10,15,02,59,1.20
2016,10,15,03,00,1.20
2016,10,15,03,01,1.70
2016,10,15,03,02,1.30
2016,10,15,03,03,0.70
2016,10,15,03,04,0.40
2016,10,15,03,05,0.90
2016,10,15,03,06,1.60
2016,10,15,03,07,0.90
2016,10,15,03,08,0.90
2016,10,15,03,09,1.60
2016,10,15,03,10,2.10
2016,10,15,03,11,2.80
2016,10,15,03,12,2.90
2016,10,15,03,13,3.10
2016,10,15,03,14,2.50
2016,10,15,03,15,2.90
2016,10,15,03,16,2.50
2016,10,15,03,17,2.20
2016,10,15,03,18,2.50
2016,10,15,03,19,1.60
2016,10,15,03,20,0.70
2016,10,15,03,21,0.10
2016,10,15,03,22,0.00
2016,10,15,03,23,0.00
2016,10,15,03,24,0.10
2016,10,15,03,25,0.50
2016,10,15,03,26,0.10
2016,10,15,03,27,0.00
2016,10,15,03,28,0.00
2016,10,15,03,29,0.00
2016,10,15,03,30,0.00
2016,10,15,03,31,0.00
2016,10,15,03,32,0.00
2016,10,15,03,33,0.00
2016,10,15,03,34,0.00
2016,10,15,03,35,0.00
2016,10,15,03,36,0.00
2016,10,15,03,37,0.00
2016,10,15,03,38,0.00
2016,10,15,03,39,0.00
2016,10,15,03,40,0.00
2016,10,15,03,41,0.00
2016,10,15,03,42,0.00
2016,10,15,03,43,0.00
2016,10,15,03,44,0.50
2016,10,15,03,45,1.90
2016,10,15,03,46,2.50
2016,10,15,03,47,2.70
2016,10,15,03,48,1.90
2016,10,15,03,49,0.60
2016,10,15,03,50,1.20
2016,10,15,03,51,1.80
2016,10,15,03,52,2.10
2016,10,15,03,53,2.30
2016,10,15,03,54,2.90
2016,10,15,03,55,2.20
2016,10,15,03,56,2.10
2016,10,15,03,57,1.50
2016,10,15,03,58,1.10
2016,10,15,03,59,2.10
2016,10,15,04,00,1.90
2016,10,15,04,01,2.70
2016,10,15,04,02,1.70
2016,10,15,04,03,1.50
2016,10,15,04,04,0.30
2016,10,15,04,05,0.10
2016,10,15,04,06,0.10
2016,10,15,04,07,1.00
2016,10,15,04,08,1.20
2016,10,15,04,09,1.80
2016,10,15,04,10,1.90
2016,10,15,04,11,1.70
2016,10,15,04,12,1.60
2016,10,15,04,13,0.70
2016,10,15,04,14,0.50
2016,10,15,04,15,0.10
2016,10,15,04,16,0.00
2016,10,15,04,17,0.80
2016,10,15,04,18,0.80
2016,10,15,04,19,1.00
2016,10,15,04,20,1.50
2016,10,15,04,21,1.00
2016,10,15,04,22,1.60
2016,10,15,04,23,1.10
2016,10,15,04,24,0.90
2016,10,15,04,25,1.40
2016,10,15,04,26,1.70
2016,10,15,04,27,3.40
2016,10,15,04,28,3.20
2016,10,15,04,29,2.10
2016,10,15,04,30,1.50
2016,10,15,04,31,2.00
2016,10,15,04,32,0.80
2016,10,15,04,33,1.00
2016,10,15,04,34,2.20
2016,10,15,04,35,2.30
2016,10,15,04,36,2.90
2016,10,15,04,37,4.90
2016,10,15,04,38,4.70
2016,10,15,04,39,3.80
2016,10,15,04,40,3.30
2016,10,15,04,41,3.80
2016,10,15,04,42,5.60
2016,10,15,04,43,3.80
2016,10,15,04,44,1.70
2016,10,15,04,45,1.40
2016,10,15,04,46,1.40
2016,10,15,04,47,0.60
2016,10,15,04,48,1.10
2016,10,15,04,49,1.90
2016,10,15,04,50,0.80
2016,10,15,04,51,2.40
2016,10,15,04,52,4.10
2016,10,15,04,53,3.30
2016,10,15,04,54,3.50
2016,10,15,04,55,2.90
2016,10,15,04,56,0.80
2016,10,15,04,57,0.00
2016,10,15,04,58,0.00
2016,10,15,04,59,0.60
2016,10,15,05,00,1.00
2016,10,15,05,01,0.10
2016,10,15,05,02,0.30
2016,10,15,05,03,2.40
2016,10,15,05,04,2.50
2016,10,15,05,05,3.70
2016,10,15,05,06,4.90
2016,10,15,05,07,2.60
2016,10,15,05,08,3.10
2016,10,15,05,09,0.90
2016,10,15,05,10,2.20
2016,10,15,05,11,4.50
2016,10,15,05,12,3.00
2016,10,15,05,13,0.50
2016,10,15,05,14,0.70
2016,10,15,05,15,2.40
2016,10,15,05,16,1.70
2016,10,15,05,17,1.60
2016,10,15,05,18,0.60
2016,10,15,05,19,0.00
2016,10,15,05,20,0.10
2016,10,15,05,21,0.40
2016,10,15,05,22,0.60
2016,10,15,05,23,0.00
2016,10,15,05,24,0.40
2016,10,15,05,25,1.40
2016,10,15,05,26,0.90
2016,10,15,05,27,0.90
2016,10,15,05,28,0.10
2016,10,15,05,29,0.10
2016,10,15,05,30,0.40
2016,10,15,05,31,0.50
2016,10,15,05,32,0.70
2016,10,15,05,33,1.30
2016,10,15,05,34,0.00
2016,10,15,05,35,0.00
2016,10,15,05,36,2.10
2016,10,15,05,37,2.20
2016,10,15,05,38,2.20
2016,10,15,05,39,1.60
2016,10,15,05,40,1.30
2016,10,15,05,41,1.30
2016,10,15,05,42,3.10
2016,10,15,05,43,0.60
2016,10,15,05,44,1.70
2016,10,15,05,45,2.20
2016,10,15,05,46,1.70
2016,10,15,05,47,1.30
2016,10,15,05,48,1.70
2016,10,15,05,49,1.90
2016,10,15,05,50,2.30
2016,10,15,05,51,0.60
2016,10,15,05,52,1.20
2016,10,15,05,53,0.90
2016,10,15,05,54,2.70
2016,10,15,05,55,2.10
2016,10,15,05,56,2.20
2016,10,15,05,57,0.20
2016,10,15,05,58,0.20
2016,10,15,05,59,0.30
2016,10,15,06,00,1.20
2016,10,15,06,01,0.50
2016,10,15,06,02,0.70
2016,10,15,06,03,0.70
2016,10,15,06,04,0.50
2016,10,15,06,05,2.10
2016,10,15,06,06,3.10
2016,10,15,06,07,3.80
2016,10,15,06,08,3.40
2016,10,15,06,09,2.50
2016,10,15,06,10,1.20
2016,10,15,06,11,1.00
2016,10,15,06,12,2.20
2016,10,15,06,13,2.90
2016,10,15,06,14,4.60
2016,10,15,06,15,4.40
2016,10,15,06,16,2.20
2016,10,15,06,17,2.00
2016,10,15,06,18,1.50
2016,10,15,06,19,1.10
2016,10,15,06,20,0.80
2016,10,15,06,21,2.30
2016,10,15,06,22,2.30
2016,10,15,06,23,1.10
2016,10,15,06,24,1.70
2016,10,15,06,25,1.80
2016,10,15,06,26,4.30
2016,10,15,06,27,6.10
2016,10,15,06,28,5.70
2016,10,15,06,29,4.30
2016,10,15,06,30,4.70
2016,10,15,06,31,5.30
2016,10,15,06,32,3.20
2016,10,15,06,33,1.20
2016,10,15,06,34,4.20
2016,10,15,06,35,5.00
2016,10,15,06,36,4.10
2016,10,15,06,37,4.50
2016,10,15,06,38,3.90
2016,10,15,06,39,3.70
2016,10,15,06,40,2.50
2016,10,15,06,41,2.00
2016,10,15,06,42,0.90
2016,10,15,06,43,0.10
2016,10,15,06,44,0.10
2016,10,15,06,45,1.30
2016,10,15,06,46,0.40
2016,10,15,06,47,1.20
2016,10,15,06,48,1.80
2016,10,15,06,49,2.70
2016,10,15,06,50,2.70
2016,10,15,06,51,1.70
2016,10,15,06,52,2.60
2016,10,15,06,53,0.70
2016,10,15,06,54,2.70
2016,10,15,06,55,2.50
2016,10,15,06,56,1.40
2016,10,15,06,57,1.70
2016,10,15,06,58,1.50
2016,10,15,06,59,2.20
2016,10,15,07,00,3.90
2016,10,15,07,01,4.90
2016,10,15,07,02,3.30
2016,10,15,07,03,1.80
2016,10,15,07,04,2.60
2016,10,15,07,05,1.30
2016,10,15,07,06,1.60
2016,10,15,07,07,1.10
2016,10,15,07,08,0.30
2016,10,15,07,09,0.50
2016,10,15,07,10,2.50
2016,10,15,07,11,1.60
2016,10,15,07,12,2.00
2016,10,15,07,13,1.90
2016,10,15,07,14,5.10
2016,10,15,07,15,4.70
2016,10,15,07,16,2.40
2016,10,15,07,17,2.10
2016,10,15,07,18,2.60
2016,10,15,07,19,1.90
2016,10,15,07,20,2.80
2016,10,15,07,21,1.70
2016,10,15,07,22,1.20
2016,10,15,07,23,3.20
2016,10,15,07,24,2.20
2016,10,15,07,25,2.70
2016,10,15,07,26,3.30
2016,10,15,07,27,3.20
2016,10,15,07,28,2.10
2016,10,15,07,29,2.90
2016,10,15,07,30,1.70
2016,10,15,07,31,1.90
2016,10,15,07,32,2.90
2016,10,15,07,33,3.10
2016,10,15,07,34,2.90
2016,10,15,07,35,3.20
2016,10,15,07,36,3.70
2016,10,15,07,37,2.80
2016,10,15,07,38,3.80
2016,10,15,07,39,1.70
2016,10,15,07,40,1.00
2016,10,15,07,41,1.20
2016,10,15,07,42,1.80
2016,10,15,07,43,1.80
2016,10,15,07,44,1.70
2016,10,15,07,45,2.20
2016,10,15,07,46,2.10
2016,10,15,07,47,0.70
2016,10,15,07,48,0.60
2016,10,15,07,49,0.50
2016,10,15,07,50,1.60
2016,10,15,07,51,1.60
2016,10,15,07,52,2.00
2016,10,15,07,53,1.10
2016,10,15,07,54,0.20
2016,10,15,07,55,0.10
2016,10,15,07,56,1.70
2016,10,15,07,57,1.40
2016,10,15,07,58,0.90
2016,10,15,07,59,1.60
2016,10,15,08,00,1.10
2016,10,15,08,01,1.20
2016,10,15,08,02,0.40
2016,10,15,08,03,0.20
2016,10,15,08,04,1.40
2016,10,15,08,05,2.40
2016,10,15,08,06,2.00
2016,10,15,08,07,2.30
2016,10,15,08,08,1.30
2016,10,15,08,09,2.00
2016,10,15,08,10,1.30
2016,10,15,08,11,1.80
2016,10,15,08,12,2.90
2016,10,15,08,13,2.20
2016,10,15,08,14,1.90
2016,10,15,08,15,4.70
2016,10,15,08,16,2.70
2016,10,15,08,17,2.30
2016,10,15,08,18,2.30
2016,10,15,08,19,3.20
2016,10,15,08,20,4.40
2016,10,15,08,21,3.80
2016,10,15,08,22,4.70
2016,10,15,08,23,3.30
2016,10,15,08,24,4.00
2016,10,15,08,25,3.60
2016,10,15,08,26,5.20
2016,10,15,08,27,2.80
2016,10,15,08,28,3.90
2016,10,15,08,29,4.90
2016,10,15,08,30,4.70
2016,10,15,08,31,1.70
2016,10,15,08,32,2.50
2016,10,15,08,33,3.90
2016,10,15,08,34,2.80
2016,10,15,08,35,4.40
2016,10,15,08,36,2.90
2016,10,15,08,37,1.10
2016,10,15,08,38,1.60
2016,10,15,08,39,1.20
2016,10,15,08,40,0.90
2016,10,15,08,41,1.50
2016,10,15,08,42,0.10
2016,10,15,08,43,1.20
2016,10,15,08,44,0.50
2016,10,15,08,45,2.00
2016,10,15,08,46,4.10
2016,10,15,08,47,2.70
2016,10,15,08,48,2.00
2016,10,15,08,49,1.70
2016,10,15,08,50,3.60
2016,10,15,08,51,1.60
2016,10,15,08,52,1.50
2016,10,15,08,53,2.70
2016,10,15,08,54,0.80
2016,10,15,08,55,1.70
2016,10,15,08,56,1.20
2016,10,15,08,57,0.80
2016,10,15,08,58,0.50
2016,10,15,08,59,2.50
2016,10,15,09,00,4.20
2016,10,15,09,01,3.10
2016,10,15,09,02,2.80
2016,10,15,09,03,4.20
2016,10,15,09,04,2.30
2016,10,15,09,05,2.40
2016,10,15,09,06,4.20
2016,10,15,09,07,4.40
2016,10,15,09,08,1.20
2016,10,15,09,09,0.10
2016,10,15,09,10,3.30
2016,10,15,09,11,0.60
2016,10,15,09,12,0.70
2016,10,15,09,13,3.90
2016,10,15,09,14,6.40
2016,10,15,09,15,5.60
2016,10,15,09,16,6.10
2016,10,15,09,17,8.90
2016,10,15,09,18,11.40
2016,10,15,09,19,8.20
2016,10,15,09,20,8.40
2016,10,15,09,21,12.80
2016,10,15,09,22,6.80
2016,10,15,09,23,7.50
2016,10,15,09,24,4.40
2016,10,15,09,25,2.80
2016,10,15,09,26,1.60
2016,10,15,09,27,2.80
2016,10,15,09,28,7.20
2016,10,15,09,29,5.50
2016,10,15,09,30,3.10
2016,10,15,09,31,4.30
2016,10,15,09,32,4.00
2016,10,15,09,33,2.00
2016,10,15,09,34,2.10
2016,10,15,09,35,3.20
2016,10,15,09,36,2.60
2016,10,15,09,37,4.40
2016,10,15,09,38,9.90
2016,10,15,09,39,7.80
2016,10,15,09,40,2.00
2016,10,15,09,41,5.00
2016,10,15,09,42,2.70
2016,10,15,09,43,4.80
2016,10,15,09,44,2.00
2016,10,15,09,45,8.30
2016,10,15,09,46,8.50
2016,10,15,09,47,6.70
2016,10,15,09,48,4.60
2016,10,15,09,49,7.20
2016,10,15,09,50,9.50
2016,10,15,09,51,8.40
2016,10,15,09,52,11.10
2016,10,15,09,53,10.90
2016,10,15,09,54,7.50
2016,10,15,09,55,7.60
2016,10,15,09,56,4.20
2016,10,15,09,57,5.50
2016,10,15,09,58,2.90
2016,10,15,09,59,2.20
2016,10,15,10,00,3.70
2016,10,15,10,01,3.40
2016,10,15,10,02,3.70
2016,10,15,10,03,1.90
2016,10,15,10,04,2.60
2016,10,15,10,05,0.60
2016,10,15,10,06,0.90
2016,10,15,10,07,3.20
2016,10,15,10,08,2.30
2016,10,15,10,09,4.50
2016,10,15,10,10,2.30
2016,10,15,10,11,1.40
2016,10,15,10,12,4.80
2016,10,15,10,13,3.00
2016,10,15,10,14,3.20
2016,10,15,10,15,2.70
2016,10,15,10,16,1.60
2016,10,15,10,17,0.60
2016,10,15,10,18,0.10
2016,10,15,10,19,2.40
2016,10,15,10,20,5.80
2016,10,15,10,21,2.30
2016,10,15,10,22,1.30
2016,10,15,10,23,1.20
2016,10,15,10,24,2.20
2016,10,15,10,25,3.20
2016,10,15,10,26,0.90
2016,10,15,10,27,0.30
2016,10,15,10,28,0.90
2016,10,15,10,29,2.80
2016,10,15,10,30,3.70
2016,10,15,10,31,4.60
2016,10,15,10,32,4.90
2016,10,15,10,33,2.70
2016,10,15,10,34,3.20
2016,10,15,10,35,1.00
2016,10,15,10,36,1.40
2016,10,15,10,37,2.90
2016,10,15,10,38,5.10
2016,10,15,10,39,4.00
2016,10,15,10,40,4.80
2016,10,15,10,41,2.90
2016,10,15,10,42,3.20
2016,10,15,10,43,3.90
2016,10,15,10,44,2.80
2016,10,15,10,45,2.10
2016,10,15,10,46,2.40
2016,10,15,10,47,1.80
2016,10,15,10,48,0.40
2016,10,15,10,49,0.10
2016,10,15,10,50,0.10
2016,10,15,10,51,1.00
2016,10,15,10,52,2.80
2016,10,15,10,53,3.70
2016,10,15,10,54,3.00
2016,10,15,10,55,1.40
2016,10,15,10,56,2.40
2016,10,15,10,57,2.80
2016,10,15,10,58,2.90
2016,10,15,10,59,3.50
2016,10,15,11,00,1.60
2016,10,15,11,01,0.40
2016,10,15,11,02,1.70
2016,10,15,11,03,0.30
2016,10,15,11,04,0.40
2016,10,15,11,05,0.20
2016,10,15,11,06,1.40
2016,10,15,11,07,1.80
2016,10,15,11,08,3.80
2016,10,15,11,09,2.00
2016,10,15,11,10,4.10
2016,10,15,11,11,3.10
2016,10,15,11,12,2.40
2016,10,15,11,13,2.30
2016,10,15,11,14,2.20
2016,10,15,11,15,1.70
2016,10,15,11,16,2.10
2016,10,15,11,17,1.80
2016,10,15,11,18,1.60
2016,10,15,11,19,1.30
2016,10,15,11,20,2.30
2016,10,15,11,21,3.60
2016,10,15,11,22,3.30
2016,10,15,11,23,3.90
2016,10,15,11,24,5.20
2016,10,15,11,25,6.40
2016,10,15,11,26,4.30
2016,10,15,11,27,4.40
2016,10,15,11,28,4.00
2016,10,15,11,29,4.40
2016,10,15,11,30,3.20
2016,10,15,11,31,4.30
2016,10,15,11,32,4.10
2016,10,15,11,33,3.80
2016,10,15,11,34,3.00
2016,10,15,11,35,4.80
2016,10,15,11,36,5.00
2016,10,15,11,37,3.90
2016,10,15,11,38,2.10
2016,10,15,11,39,0.80
2016,10,15,11,40,0.50
2016,10,15,11,41,2.10
2016,10,15,11,42,4.90
2016,10,15,11,43,5.20
2016,10,15,11,44,6.30
2016,10,15,11,45,2.90
2016,10,15,11,46,1.80
2016,10,15,11,47,1.80
2016,10,15,11,48,2.80
2016,10,15,11,49,4.10
2016,10,15,11,50,3.80
2016,10,15,11,51,3.40
2016,10,15,11,52,4.40
2016,10,15,11,53,3.70
2016,10,15,11,54,2.60
2016,10,15,11,55,0.70
2016,10,15,11,56,2.10
2016,10,15,11,57,3.00
2016,10,15,11,58,3.40
2016,10,15,11,59,3.50
2016,10,15,12,00,3.30
2016,10,15,12,01,3.80
2016,10,15,12,02,4.20
2016,10,15,12,03,5.20
2016,10,15,12,04,2.50
2016,10,15,12,05,1.90
2016,10,15,12,06,0.30
2016,10,15,12,07,1.80
2016,10,15,12,08,3.20
2016,10,15,12,09,1.20
2016,10,15,12,10,0.70
2016,10,15,12,11,2.40
2016,10,15,12,12,4.90
2016,10,15,12,13,4.40
2016,10,15,12,14,3.40
2016,10,15,12,15,2.70
2016,10,15,12,16,9.50
2016,10,15,12,17,11.50
2016,10,15,12,18,8.10
2016,10,15,12,19,8.70
2016,10,15,12,20,5.30
2016,10,15,12,21,3.60
2016,10,15,12,22,3.20
2016,10,15,12,23,4.10
2016,10,15,12,24,6.30
2016,10,15,12,25,6.10
2016,10,15,12,26,2.40
2016,10,15,12,27,1.90
2016,10,15,12,28,2.90
2016,10,15,12,29,6.30
2016,10,15,12,30,4.30
2016,10,15,12,31,3.20
2016,10,15,12,32,3.40
2016,10,15,12,33,6.10
2016,10,15,12,34,2.20
2016,10,15,12,35,3.20
2016,10,15,12,36,3.40
2016,10,15,12,37,3.50
2016,10,15,12,38,1.20
2016,10,15,12,39,5.40
2016,10,15,12,40,6.00
2016,10,15,12,41,5.30
2016,10,15,12,42,6.30
2016,10,15,12,43,5.20
2016,10,15,12,44,7.80
2016,10,15,12,45,7.80
2016,10,15,12,46,5.80
2016,10,15,12,47,7.40
2016,10,15,12,48,5.90
2016,10,15,12,49,4.30
2016,10,15,12,50,3.40
2016,10,15,12,51,4.10
2016,10,15,12,52,5.40
2016,10,15,12,53,11.80
2016,10,15,12,54,6.40
2016,10,15,12,55,3.80
2016,10,15,12,56,4.70
2016,10,15,12,57,5.10
2016,10,15,12,58,5.00
2016,10,15,12,59,6.60
2016,10,15,13,00,4.50
2016,10,15,13,01,4.90
2016,10,15,13,02,7.80
2016,10,15,13,03,11.00
2016,10,15,13,04,12.10
2016,10,15,13,05,11.60
2016,10,15,13,06,6.10
2016,10,15,13,07,7.80
2016,10,15,13,08,10.80
2016,10,15,13,09,14.70
2016,10,15,13,10,6.00
2016,10,15,13,11,6.40
2016,10,15,13,12,5.80
2016,10,15,13,13,2.30
2016,10,15,13,14,5.90
2016,10,15,13,15,10.60
2016,10,15,13,16,17.40
2016,10,15,13,17,14.50
2016,10,15,13,18,16.40
2016,10,15,13,19,11.20
2016,10,15,13,20,6.50
2016,10,15,13,21,7.40
2016,10,15,13,22,8.20
2016,10,15,13,23,9.80
2016,10,15,13,24,9.80
2016,10,15,13,25,9.10
2016,10,15,13,26,6.00
2016,10,15,13,27,3.90
2016,10,15,13,28,8.10
2016,10,15,13,29,7.70
2016,10,15,13,30,3.20
2016,10,15,13,31,3.60
2016,10,15,13,32,7.80
2016,10,15,13,33,4.50
2016,10,15,13,34,6.90
2016,10,15,13,35,5.70
2016,10,15,13,36,3.60
2016,10,15,13,37,3.90
2016,10,15,13,38,6.00
2016,10,15,13,39,3.60
2016,10,15,13,40,8.40
2016,10,15,13,41,14.00
2016,10,15,13,42,10.90
2016,10,15,13,43,7.50
2016,10,15,13,44,3.80
2016,10,15,13,45,5.80
2016,10,15,13,46,3.20
2016,10,15,13,47,3.60
2016,10,15,13,48,4.70
2016,10,15,13,49,4.40
2016,10,15,13,50,3.90
2016,10,15,13,51,3.90
2016,10,15,13,52,6.40
2016,10,15,13,53,5.30
2016,10,15,13,54,4.80
2016,10,15,13,55,5.40
2016,10,15,13,56,5.40
2016,10,15,13,57,3.60
2016,10,15,13,58,1.10
2016,10,15,13,59,4.90
2016,10,15,14,00,5.70
2016,10,15,14,01,4.60
2016,10,15,14,02,8.10
2016,10,15,14,03,5.30
2016,10,15,14,04,2.40
2016,10,15,14,05,3.40
2016,10,15,14,06,4.10
2016,10,15,14,07,4.30
2016,10,15,14,08,2.60
2016,10,15,14,09,6.10
2016,10,15,14,10,6.70
2016,10,15,14,11,2.10
2016,10,15,14,12,8.50
2016,10,15,14,13,9.50
2016,10,15,14,14,4.50
2016,10,15,14,15,2.60
2016,10,15,14,16,7.80
2016,10,15,14,17,3.30
2016,10,15,14,18,2.10
2016,10,15,14,19,4.10
2016,10,15,14,20,5.10
2016,10,15,14,21,3.20
2016,10,15,14,22,2.30
2016,10,15,14,23,2.70
2016,10,15,14,24,2.80
2016,10,15,14,25,1.60
2016,10,15,14,26,1.60
2016,10,15,14,27,2.80
2016,10,15,14,28,10.20
2016,10,15,14,29,5.40
2016,10,15,14,30,7.80
2016,10,15,14,31,11.90
2016,10,15,14,32,6.30
2016,10,15,14,33,4.50
2016,10,15,14,34,4.40
2016,10,15,14,35,3.50
2016,10,15,14,36,2.10
2016,10,15,14,37,4.20
2016,10,15,14,38,3.50
2016,10,15,14,39,3.30
2016,10,15,14,40,3.90
2016,10,15,14,41,6.80
2016,10,15,14,42,4.10
2016,10,15,14,43,2.10
2016,10,15,14,44,5.60
2016,10,15,14,45,2.60
2016,10,15,14,46,2.00
2016,10,15,14,47,4.10
2016,10,15,14,48,4.50
2016,10,15,14,49,5.60
2016,10,15,14,50,4.10
2016,10,15,14,51,6.40
2016,10,15,14,52,6.80
2016,10,15,14,53,6.40
2016,10,15,14,54,6.40
2016,10,15,14,55,6.10
2016,10,15,14,56,9.50
2016,10,15,14,57,8.30
2016,10,15,14,58,13.90
2016,10,15,14,59,10.00
2016,10,15,15,00,8.90
2016,10,15,15,01,5.70
2016,10,15,15,02,8.70
2016,10,15,15,03,8.80
2016,10,15,15,04,4.90
2016,10,15,15,05,2.10
2016,10,15,15,06,2.10
2016,10,15,15,07,5.30
2016,10,15,15,08,6.00
2016,10,15,15,09,2.30
2016,10,15,15,10,1.80
2016,10,15,15,11,4.80
2016,10,15,15,12,10.70
2016,10,15,15,13,10.20
2016,10,15,15,14,7.10
2016,10,15,15,15,5.00
2016,10,15,15,16,4.00
2016,10,15,15,17,1.70
2016,10,15,15,18,2.20
2016,10,15,15,19,3.10
2016,10,15,15,20,3.40
2016,10,15,15,21,4.10
2016,10,15,15,22,3.00
2016,10,15,15,23,1.80
2016,10,15,15,24,2.50
2016,10,15,15,25,5.30
2016,10,15,15,26,3.00
2016,10,15,15,27,8.00
2016,10,15,15,28,10.80
2016,10,15,15,29,3.80
2016,10,15,15,30,3.60
2016,10,15,15,31,3.20
2016,10,15,15,32,2.80
2016,10,15,15,33,3.70
2016,10,15,15,34,4.90
2016,10,15,15,35,4.00
2016,10,15,15,36,4.70
2016,10,15,15,37,5.70
2016,10,15,15,38,8.80
2016,10,15,15,39,7.70
2016,10,15,15,40,6.40
2016,10,15,15,41,3.10
2016,10,15,15,42,0.80
2016,10,15,15,43,4.50
2016,10,15,15,44,7.60
2016,10,15,15,45,7.40
2016,10,15,15,46,1.60
2016,10,15,15,47,3.10
2016,10,15,15,48,9.30
2016,10,15,15,49,12.50
2016,10,15,15,50,7.60
2016,10,15,15,51,5.10
2016,10,15,15,52,7.40
2016,10,15,15,53,3.40
2016,10,15,15,54,0.90
2016,10,15,15,55,0.30
2016,10,15,15,56,1.80
2016,10,15,15,57,1.10
2016,10,15,15,58,0.90
2016,10,15,15,59,0.70
2016,10,15,16,00,2.00
2016,10,15,16,01,1.70
2016,10,15,16,02,1.80
2016,10,15,16,03,2.60
2016,10,15,16,04,0.50
2016,10,15,16,05,5.50
2016,10,15,16,06,5.80
2016,10,15,16,07,6.00
2016,10,15,16,08,7.20
2016,10,15,16,09,4.90
2016,10,15,16,10,3.60
2016,10,15,16,11,3.70
2016,10,15,16,12,1.30
2016,10,15,16,13,1.30
2016,10,15,16,14,5.70
2016,10,15,16,15,7.30
2016,10,15,16,16,4.70
2016,10,15,16,17,4.10
2016,10,15,16,18,6.30
2016,10,15,16,19,6.60
2016,10,15,16,20,5.60
2016,10,15,16,21,4.50
2016,10,15,16,22,5.40
2016,10,15,16,23,4.50
2016,10,15,16,24,6.10
2016,10,15,16,25,4.10
2016,10,15,16,26,7.90
2016,10,15,16,27,5.00
2016,10,15,16,28,6.30
2016,10,15,16,29,6.10
2016,10,15,16,30,6.70
2016,10,15,16,31,5.00
2016,10,15,16,32,6.40
2016,10,15,16,33,8.40
2016,10,15,16,34,12.20
2016,10,15,16,35,12.00
2016,10,15,16,36,8.70
2016,10,15,16,37,10.00
2016,10,15,16,38,4.20
2016,10,15,16,39,2.20
2016,10,15,16,40,4.50
2016,10,15,16,41,3.40
2016,10,15,16,42,2.50
2016,10,15,16,43,5.80
2016,10,15,16,44,5.90
2016,10,15,16,45,6.00
2016,10,15,16,46,5.30
2016,10,15,16,47,4.80
2016,10,15,16,48,4.90
2016,10,15,16,49,3.20
2016,10,15,16,50,5.80
2016,10,15,16,51,4.50
2016,10,15,16,52,4.50
2016,10,15,16,53,3.80
2016,10,15,16,54,4.70
2016,10,15,16,55,3.70
2016,10,15,16,56,3.30
2016,10,15,16,57,2.60
2016,10,15,16,58,2.20
2016,10,15,16,59,2.80
2016,10,15,17,00,1.80
2016,10,15,17,01,4.30
2016,10,15,17,02,6.40
2016,10,15,17,03,6.10
2016,10,15,17,04,5.00
2016,10,15,17,05,3.90
2016,10,15,17,06,5.00
2016,10,15,17,07,3.80
2016,10,15,17,08,1.30
2016,10,15,17,09,2.10
2016,10,15,17,10,4.60
2016,10,15,17,11,4.80
2016,10,15,17,12,5.80
2016,10,15,17,13,6.20
2016,10,15,17,14,9.20
2016,10,15,17,15,3.20
2016,10,15,17,16,0.90
2016,10,15,17,17,2.50
2016,10,15,17,18,4.50
2016,10,15,17,19,4.80
2016,10,15,17,20,3.90
2016,10,15,17,21,2.90
2016,10,15,17,22,2.60
2016,10,15,17,23,1.80
2016,10,15,17,24,4.70
2016,10,15,17,25,3.20
2016,10,15,17,26,4.70
2016,10,15,17,27,4.70
2016,10,15,17,28,8.20
2016,10,15,17,29,9.40
2016,10,15,17,30,7.30
2016,10,15,17,31,7.60
2016,10,15,17,32,4.60
2016,10,15,17,33,1.10
2016,10,15,17,34,2.80
2016,10,15,17,35,0.80
2016,10,15,17,36,3.80
2016,10,15,17,37,14.80
2016,10,15,17,38,9.70
2016,10,15,17,39,16.00
2016,10,15,17,40,4.50
2016,10,15,17,41,3.80
2016,10,15,17,42,5.60
2016,10,15,17,43,5.30
2016,10,15,17,44,6.90
2016,10,15,17,45,6.90
2016,10,15,17,46,15.60
2016,10,15,17,47,12.00
2016,10,15,17,48,11.40
2016,10,15,17,49,6.50
2016,10,15,17,50,3.00
2016,10,15,17,51,5.10
2016,10,15,17,52,8.00
2016,10,15,17,53,4.40
2016,10,15,17,54,6.70
2016,10,15,17,55,4.50
2016,10,15,17,56,4.80
2016,10,15,17,57,17.10
2016,10,15,17,58,11.60
2016,10,15,17,59,4.60
2016,10,15,18,00,3.60
2016,10,15,18,01,6.60
2016,10,15,18,02,6.20
2016,10,15,18,03,11.30
2016,10,15,18,04,6.20